Home   Weather   Mansfield   Past weeks

Flag for USA Past Weather in Mansfield, Texas, USA — Yesterday and Last 2 Weeks

50 °F


Feels Like: 50 °F
Forecast: 48 / 75 °F
Wind: No wind

Location: Burleson-Rendon

Current Time: Oct 21, 2016 at 10:44:58 PM

Latest Report: Oct 21, 2016 at 10:15 PM

Visibility: 10 mi

Pressure: 30.19 "Hg

Humidity: 87%

Dew Point: 46 °F

Location of MansfieldLocation

Past Weather in Mansfield — Graph


Mansfield Temperature Yesterday

Maximum temperature yesterday: 77 °F (at 1:48 PM)
Minimum temperature yesterday: 57 °F (at 11:35 PM)
Average temperature yesterday: 68 °F

High & Low Weather Summary for the Past Weeks

High91 °F (Oct 12, 3:50 PM)100% (Oct 7, 10:51 AM)30.36 "Hg (Oct 7, 10:51 AM)
Low46 °F (Oct 10, 7:50 AM)22% (Oct 11, 3:56 PM)29.72 "Hg (Oct 17, 5:50 PM)
Average69 °F74%30.08 "Hg
* Reported Oct 6 9:15 PM — Oct 21 9:15 PM, Mansfield, Weather by CustomWeather, © 2016

Note: Actual official high and low records may vary slightly from our data, if they occured in-between our weather recording intervals... More about our weather records


Mansfield Weather History for the Previous 24 Hours

Scroll right to see more
Time TempWeatherWind HumidityBarometerVisibility
9:15 PM
Fri, Oct 21
52 °FClear.No wind82%30.18 "Hg10 mi
8:55 PM53 °FClear.No wind80%30.18 "Hg10 mi
8:35 PM54 °FClear.No wind76%30.18 "Hg10 mi
8:15 PM55 °FClear.No wind71%30.17 "Hg10 mi
7:55 PM58 °FClear.No wind63%30.17 "Hg10 mi
6:55 PM66 °FClear.No wind43%30.17 "Hg10 mi
5:55 PM72 °FSunny.No wind31%30.17 "Hg10 mi
4:55 PM73 °FSunny.7 mph31%30.18 "Hg10 mi
3:55 PM72 °FSunny.No wind33%30.20 "Hg10 mi
2:55 PM72 °FSunny.No wind33%30.22 "Hg10 mi
1:55 PM72 °FSunny.7 mph33%30.24 "Hg10 mi
12:55 PM70 °FSunny.8 mph38%30.28 "Hg10 mi
11:53 AM66 °FSunny.7 mph46%30.31 "Hg10 mi
10:55 AM64 °FSunny.5 mph52%30.32 "Hg10 mi
9:50 AM59 °FSunny.3 mph68%30.33 "Hg10 mi
8:53 AM54 °FSunny.No wind88%30.32 "Hg10 mi
7:49 AM48 °FSunny.No wind94%30.31 "Hg10 mi
6:48 AM48 °FClear.No wind94%30.31 "Hg10 mi
6:15 AM48 °FClear.No wind89%30.30 "Hg7 mi
5:55 AM49 °FClear.No wind87%30.30 "Hg7 mi
5:15 AM48 °FClear.No wind89%30.29 "Hg7 mi
4:55 AM47 °FClear.No wind86%30.29 "Hg10 mi
4:35 AM53 °FClear.No wind77%30.29 "Hg10 mi
4:15 AM54 °FClear.3 mph75%30.29 "Hg10 mi
3:55 AM53 °FClear.No wind77%30.30 "Hg10 mi
3:35 AM51 °FClear.3 mph80%30.31 "Hg10 mi
3:15 AM54 °FClear.5 mph74%30.31 "Hg10 mi
2:55 AM53 °FClear.5 mph76%30.31 "Hg10 mi
2:35 AM49 °FClear.No wind85%30.31 "Hg10 mi
2:15 AM50 °FClear.No wind82%30.31 "Hg10 mi
1:55 AM52 °FClear.No wind76%30.30 "Hg10 mi
1:35 AM55 °FClear.3 mph71%30.30 "Hg10 mi
1:15 AM54 °FClear.No wind72%30.30 "Hg10 mi
12:55 AM56 °FClear.6 mph66%30.30 "Hg10 mi
12:35 AM56 °FClear.5 mph65%30.29 "Hg10 mi
12:15 AM58 °FClear.6 mph62%30.30 "Hg10 mi
11:55 PM
Thu, Oct 20
57 °FClear.No wind63%30.30 "Hg10 mi
11:35 PM57 °FClear.7 mph64%30.31 "Hg10 mi
11:15 PM57 °FClear.6 mph63%30.30 "Hg10 mi
10:55 PM59 °FClear.7 mph58%30.30 "Hg10 mi
10:35 PM61 °FClear.8 mph55%30.30 "Hg10 mi
10:15 PM63 °FClear.9 mph51%30.29 "Hg10 mi
Weather by CustomWeather, © 2016

See weather overviewHow to use our weather pages